Galesburg, IL

4:32 AM CDT on March 27, 2017 (GMT -0500)
Galesburg Municipal

Weather History for KGBG - November, 2011

Change the Weather History Date:

Saturday, November 12, 2011

  Actual Average Record
Temperature  
Mean Temperature 50 °F -  
Max Temperature 63 °F 46 °F 71 °F (2010)
Min Temperature 36 °F 29 °F 8 °F (1986)
Degree Days  
Heating Degree Days 16    
Moisture  
Dew Point 34 °F    
Average Humidity 56    
Maximum Humidity 81    
Minimum Humidity 28    
Precipitation  
Precipitation 0.00 in - - ()
Sea Level Pressure  
Sea Level Pressure 29.68 in    
Wind  
Wind Speed 9 mph (SSE)    
Max Wind Speed 17 mph    
Max Gust Speed 25 mph    
Visibility 10 miles    
Events      
Averages and records for this station are not official NWS values.
T = Trace of Precipitation, MM = Missing Value Source: NWS Daily Summary

Daily Weather History Graph

Daily Weather History Graph

Search for Another Location

Airport or City:

Trip Planner

Search our weather history database for the weather conditions in past years. The results will help you decide how hot, cold, wet, or windy it might be!

Date:

Astronomy

Nov. 12, 2011 Rise Set
Actual Time 6:45 AM CST 4:46 PM CST
Civil Twilight 6:15 AM CST 5:15 PM CST
Nautical Twilight 5:42 AM CST 5:48 PM CST
Astronomical Twilight 5:10 AM CST 6:20 PM CST
Moon 6:01 PM CST (11/12) 8:28 AM CST (11/12)
Length of Visible Light 10h 59m
Length of Day
10h 00m
Full, 97% of the Moon is Illuminated
Nov 12
Full
Nov 18
Last Quarter
Nov 25
New
Dec 2
First Quarter
Dec 10
Full

Hourly Weather History & Observations

Time (CST) Temp. Windchill Dew Point Humidity Pressure Visibility Wind Dir Wind Speed Gust Speed Precip Events Conditions
12:15 AM 40.5 °F 35.8 °F 32.4 °F 73% 29.76 in 10.0 mi South 6.9 mph - N/A   Clear
12:35 AM 39.9 °F 35.8 °F 32.4 °F 74% 29.76 in 10.0 mi South 5.8 mph - N/A   Clear
12:55 AM 39.7 °F 36.5 °F 32.4 °F 75% 29.76 in 10.0 mi South 4.6 mph - N/A   Clear
1:15 AM 38.1 °F 31.7 °F 32.0 °F 79% 29.76 in 10.0 mi South 9.2 mph - N/A   Clear
1:35 AM 38.3 °F 32.5 °F 32.0 °F 78% 29.77 in 10.0 mi South 8.1 mph - N/A   Clear
1:55 AM 38.5 °F 31.6 °F 32.0 °F 78% 29.77 in 10.0 mi South 10.4 mph - N/A   Clear
2:15 AM 38.7 °F 32.9 °F 32.0 °F 77% 29.77 in 10.0 mi South 8.1 mph - N/A   Clear
2:35 AM 38.5 °F 32.7 °F 32.0 °F 78% 29.77 in 10.0 mi South 8.1 mph - N/A   Clear
2:55 AM 38.7 °F 32.4 °F 32.0 °F 77% 29.76 in 10.0 mi South 9.2 mph - N/A   Clear
3:15 AM 38.7 °F 32.9 °F 32.0 °F 77% 29.77 in 10.0 mi South 8.1 mph - N/A   Clear
3:35 AM 41.0 °F 39.0 °F 32.0 °F 70% 29.76 in 10.0 mi South 3.5 mph - N/A   Clear
3:55 AM 39.4 °F - 32.0 °F 75% 29.76 in 10.0 mi Calm Calm - N/A   Clear
4:15 AM 37.9 °F 34.4 °F 32.0 °F 79% 29.76 in 10.0 mi South 4.6 mph - N/A   Clear
4:35 AM 38.7 °F 36.3 °F 32.0 °F 77% 29.77 in 10.0 mi South 3.5 mph - N/A   Clear
4:55 AM 36.9 °F 34.3 °F 31.5 °F 81% 29.77 in 10.0 mi SSE 3.5 mph - N/A   Clear
5:15 AM 37.9 °F 34.4 °F 31.6 °F 78% 29.77 in 10.0 mi SSE 4.6 mph - N/A   Clear
5:35 AM 37.4 °F 33.8 °F 31.6 °F 80% 29.77 in 10.0 mi SSE 4.6 mph - N/A   Clear
6:15 AM 38.7 °F 34.3 °F 32.0 °F 77% 29.78 in 10.0 mi SSE 5.8 mph - N/A   Clear
6:35 AM 39.2 °F 35.0 °F 32.0 °F 75% 29.79 in 10.0 mi SSE 5.8 mph - N/A   Clear
6:55 AM 38.7 °F 34.3 °F 32.0 °F 77% 29.78 in 10.0 mi SSE 5.8 mph - N/A   Clear
7:15 AM 39.2 °F 35.9 °F 32.0 °F 75% 29.79 in 10.0 mi SSE 4.6 mph - N/A   Clear
7:35 AM 40.5 °F 36.5 °F 32.2 °F 72% 29.79 in 10.0 mi SSE 5.8 mph - N/A   Clear
7:55 AM 42.3 °F 38.6 °F 32.9 °F 69% 29.79 in 10.0 mi SSE 5.8 mph - N/A   Clear
8:15 AM 43.2 °F 38.4 °F 34.0 °F 70% 29.78 in 10.0 mi SSE 8.1 mph - N/A   Clear
8:35 AM 46.6 °F - 35.1 °F 64% 29.78 in 10.0 mi South 10.4 mph - N/A   Clear
8:55 AM 49.1 °F - 35.6 °F 60% 29.78 in 10.0 mi SSE 9.2 mph - N/A   Clear
9:15 AM 50.9 °F - 34.5 °F 54% 29.78 in 10.0 mi South 12.7 mph 18.4 mph N/A   Clear
9:35 AM 52.3 °F - 33.6 °F 49% 29.78 in 10.0 mi South 12.7 mph 20.7 mph N/A   Clear
9:55 AM 53.6 °F - 34.2 °F 48% 29.78 in 10.0 mi South 11.5 mph 18.4 mph N/A   Clear
10:15 AM 55.8 °F - 33.4 °F 43% 29.78 in 10.0 mi South 15.0 mph 19.6 mph N/A   Clear
10:35 AM 55.2 °F - 33.3 °F 43% 29.78 in 10.0 mi South 17.3 mph 23.0 mph N/A   Clear
10:55 AM 55.9 °F - 33.8 °F 43% 29.77 in 10.0 mi South 12.7 mph 17.3 mph N/A   Clear
11:15 AM 57.4 °F - 32.4 °F 39% 29.76 in 10.0 mi South 16.1 mph 19.6 mph N/A   Clear
11:35 AM 58.1 °F - 32.2 °F 38% 29.74 in 10.0 mi South 11.5 mph - N/A   Clear
11:55 AM 60.8 °F - 32.0 °F 34% 29.73 in 10.0 mi South 13.8 mph 21.9 mph N/A   Clear
12:15 PM 59.0 °F - 31.8 °F 36% 29.71 in 10.0 mi SSE 15.0 mph 20.7 mph N/A   Clear
12:35 PM 61.0 °F - 31.6 °F 33% 29.70 in 10.0 mi SSE 13.8 mph - N/A   Clear
12:55 PM 60.8 °F - 32.0 °F 34% 29.69 in 10.0 mi SSE 13.8 mph 18.4 mph N/A   Clear
1:15 PM 62.6 °F - 31.6 °F 31% 29.67 in 10.0 mi SSE 16.1 mph 19.6 mph N/A   Clear
1:35 PM 63.3 °F - 29.1 °F 28% 29.66 in 10.0 mi SSE 17.3 mph 25.3 mph N/A   Clear
1:55 PM 63.1 °F - 29.8 °F 29% 29.65 in 10.0 mi SSE 13.8 mph 24.2 mph N/A   Clear
2:15 PM 62.2 °F - 32.0 °F 32% 29.64 in 10.0 mi SSE 11.5 mph - N/A   Clear
2:35 PM 63.1 °F - 31.8 °F 31% 29.64 in 10.0 mi SSE 13.8 mph 21.9 mph N/A   Clear
2:55 PM 62.1 °F - 31.1 °F 31% 29.63 in 10.0 mi SSE 12.7 mph 21.9 mph N/A   Clear
3:15 PM 61.7 °F - 32.2 °F 33% 29.63 in 10.0 mi SE 9.2 mph 16.1 mph N/A   Clear
3:35 PM 61.7 °F - 32.0 °F 33% 29.62 in 10.0 mi SSE 15.0 mph 19.6 mph N/A   Clear
3:55 PM 61.5 °F - 30.0 °F 30% 29.62 in 10.0 mi SSE 13.8 mph 20.7 mph N/A   Clear
4:15 PM 59.7 °F - 32.0 °F 35% 29.61 in 10.0 mi SE 8.1 mph - N/A   Clear
4:35 PM 59.0 °F - 32.4 °F 37% 29.60 in 10.0 mi SE 11.5 mph 17.3 mph N/A   Clear
4:55 PM 58.3 °F - 32.9 °F 38% 29.59 in 10.0 mi SE 11.5 mph - N/A   Clear
5:15 PM 57.6 °F - 33.1 °F 40% 29.59 in 10.0 mi SE 15.0 mph - N/A   Clear
5:35 PM 57.0 °F - 32.9 °F 40% 29.59 in 10.0 mi SE 15.0 mph 21.9 mph N/A   Clear
5:55 PM 56.1 °F - 33.4 °F 42% 29.59 in 10.0 mi SE 16.1 mph 20.7 mph N/A   Clear
6:15 PM 55.6 °F - 33.8 °F 44% 29.59 in 10.0 mi SE 12.7 mph 20.7 mph N/A   Clear
6:35 PM 55.4 °F - 34.0 °F 44% 29.60 in 10.0 mi SSE 15.0 mph - N/A   Clear
6:55 PM 55.4 °F - 34.5 °F 45% 29.59 in 10.0 mi SSE 12.7 mph - N/A   Clear
7:15 PM 53.6 °F - 35.6 °F 51% 29.59 in 10.0 mi SSE 13.8 mph - N/A   Clear
7:35 PM 53.6 °F - 36.5 °F 52% 29.59 in 10.0 mi SSE 11.5 mph 19.6 mph N/A   Clear
7:55 PM 53.6 °F - 37.4 °F 54% 29.58 in 10.0 mi SSE 13.8 mph 19.6 mph N/A   Clear
8:15 PM 52.9 °F - 38.3 °F 58% 29.58 in 10.0 mi SSE 15.0 mph 20.7 mph N/A   Clear
8:35 PM 52.9 °F - 39.2 °F 60% 29.58 in 10.0 mi SSE 11.5 mph - N/A   Clear
8:55 PM 53.6 °F - 39.6 °F 59% 29.58 in 10.0 mi SSE 13.8 mph 18.4 mph N/A   Clear
9:15 PM 53.6 °F - 40.1 °F 60% 29.58 in 10.0 mi SSE 12.7 mph 19.6 mph N/A   Clear
9:35 PM 54.1 °F - 40.6 °F 60% 29.57 in 10.0 mi SSE 12.7 mph 20.7 mph N/A   Clear
9:55 PM 54.5 °F - 41.5 °F 62% 29.56 in 10.0 mi SSE 15.0 mph 21.9 mph N/A   Clear
10:15 PM 54.5 °F - 42.1 °F 63% 29.55 in 10.0 mi SSE 15.0 mph 20.7 mph N/A   Clear
10:35 PM 54.5 °F - 42.6 °F 64% 29.54 in 10.0 mi SSE 17.3 mph 20.7 mph N/A   Clear
10:55 PM 55.4 °F - 43.9 °F 65% 29.52 in 10.0 mi SSE 15.0 mph 24.2 mph N/A   Clear
11:15 PM 55.4 °F - 44.6 °F 67% 29.52 in 10.0 mi SSE 13.8 mph 20.7 mph N/A   Clear
11:35 PM 55.4 °F - 44.8 °F 67% 29.52 in 10.0 mi SSE 13.8 mph 20.7 mph N/A   Clear
11:55 PM 55.6 °F - 45.5 °F 69% 29.52 in 10.0 mi South 16.1 mph 20.7 mph N/A   Clear